Weather in Neptun

Belarus     53°09′53″N   29°41′17″E
temp.,
°C
wind,
m/s
gust,
m/s
humid.,
%
clouds,
%
prec.,
mm/h
press.,
hPa
HPBL,
m
6 march, sat
sat600:00−5nnw35670 0.0 1020135
03:00−5wnw23650 0.0 102247
06:00−8wsw237477 0.0 102130
09:00−6w249388 0.8 1022308
12:00−3nw468199 0.1 1023863
15:00−2nw456699 0.3 10221306
18:00−4w357362 0.1 1022154
21:00−6wsw5108131 0.1 1021265
7 march, sun
sun700:00−5wsw613841 0.0 1019425
03:00−3wsw8167538 0.0 1015696
06:00−2wsw91676100 0.0 1010915
09:00−1wsw111887100 0.1 10061202
12:000wsw121989100 0.1 10051294
15:000w121896100 0.6 10041220
18:000wnw81577100 1.8 10051443
21:00−3w5147864 1.8 1006770
8 march, mon
mon800:00−4wnw614740 0.0 1006805
03:00−4w613810 0.0 1008711
06:00−5nw498882 0.0 1009430
09:00−5nw239191 0.1 1011279
12:00−3w236764 0.0 1012864
15:00−2nw346382 0.1 10121198
18:00−3nw237234 0.0 1013149
21:00−4nw248165 0.0 101498
9 march, tue
tue900:00−6n249091 0.1 1016188
03:00−6nne359093 0.1 1017374
06:00−8n488597 0.0 1018592
09:00−8n478481 0.0 1020656
12:00−6n4570100 0.1 10221027
15:00−4nnw454948 0.0 10231180
18:00−5wnw24550 0.0 1023725
21:00−6w23650 0.0 102458
10 march, wed
wed1000:00−7wsw35728 0.0 1024117
03:00−7wsw487743 0.0 1024229
06:00−6wsw497598 0.0 1023294
09:00−6wsw597299 0.0 1023418
12:00−3w6959100 0.0 1023627
15:00−1w5849100 0.0 1022963
18:00−2wsw365999 0.0 1021260
21:00−3wsw336499 0.0 102267